This is the latest recevied weather packets stored in our database for station/object HK4DAP-11. If no packets are shown the sender has not sent any weather packets the latest 10 day(s).
| Time | Temp. | Humidity | Pressure | Rain* | Wind** | Luminosity | Snow |
|---|---|---|---|---|---|---|---|
| 1777254953 | 25° C | 69% | 851.8 hPa | - | - | - | - |
| 1777254652 | 24.44° C | 70% | 851.8 hPa | - | - | - | - |
| 1777254354 | 25° C | 71% | 851.7 hPa | - | - | - | - |
| 1777254053 | 25.56° C | 73% | 851.7 hPa | - | - | - | - |
| 1777253752 | 25° C | 73% | 851.5 hPa | - | - | - | - |
| 1777253452 | 25° C | 70% | 851.5 hPa | - | - | - | - |
| 1777253152 | 25° C | 71% | 851.5 hPa | - | - | - | - |
| 1777252851 | 25.56° C | 70% | 851.6 hPa | - | - | - | - |
| 1777252552 | 25.56° C | 70% | 851.5 hPa | - | - | - | - |
| 1777252255 | 25.56° C | 70% | 851.4 hPa | - | - | - | - |
| 1777251951 | 25° C | 71% | 851.2 hPa | - | - | - | - |
| 1777251652 | 25.56° C | 70% | 851 hPa | - | - | - | - |
| 1777251351 | 25.56° C | 70% | 851 hPa | - | - | - | - |
| 1777251051 | 25.56° C | 70% | 851 hPa | - | - | - | - |
| 1777250751 | 25.56° C | 70% | 851 hPa | - | - | - | - |
| 1777250450 | 25.56° C | 70% | 851.1 hPa | - | - | - | - |
| 1777250150 | 25.56° C | 69% | 851.1 hPa | - | - | - | - |
| 1777249850 | 25.56° C | 69% | 851 hPa | - | - | - | - |
| 1777249550 | 25.56° C | 69% | 850.7 hPa | - | - | - | - |
| 1777249250 | 25.56° C | 68% | 850.7 hPa | - | - | - | - |
| 1777248950 | 25.56° C | 68% | 850.7 hPa | - | - | - | - |
| 1777248649 | 25.56° C | 67% | 850.6 hPa | - | - | - | - |
| 1777248349 | 25° C | 68% | 850.5 hPa | - | - | - | - |
| 1777248049 | 25.56° C | 67% | 850.4 hPa | - | - | - | - |
| 1777247749 | 27.22° C | 61% | 850.1 hPa | - | - | - | - |
* Rain since midnight (hover to see other rain measurements)
** Current wind speed in m/s (hover to see current wind gust speed)